Preview of NWS' New Version of Forecast
This preview is not operational and should not be used for support decisions.

Regional Weather Roundup (RWR)

Issued by National Weather Service (NWS)

                            
000
ASUS43 KLSX 242107
RWRMO 

WEATHER SUMMARY FOR MISSOURI
NATIONAL WEATHER SERVICE SPRINGFIELD MO
400 PM CDT SUN MAR 24 2019

NOTE: "FAIR" INDICATES FEW OR NO CLOUDS BELOW 12,000 FEET WITH NO
       SIGNIFICANT WEATHER AND/OR OBSTRUCTIONS TO VISIBILITY.
       CURRENT SKY AND/OR WEATHER CONDITIONS ARE NOT AVAILABLE FOR
       CHILLICOTHE AND FARMINGTON.

MOZ001>031-035>038-043-044-053-054-242200-
...NORTHERN AND WESTERN MISSOURI...
  
CITY           SKY/WX    TMP DP  RH WIND       PRES   REMARKS
KANSAS CTY INT CLOUDY    55  43  63 NW8       29.96R                  
KANSAS C DTWN  CLOUDY    57  43  59 W8        29.96R                  
LEE'S SUMMIT   CLOUDY    57  43  59 NW12      29.96R                  
ST JOSEPH        N/A    N/A N/A N/A MISG      29.97R                  
CHILLICOTHE      N/A     58  50  75 N3        29.95R                  
KIRKSVILLE     CLOUDY    53  52  96 NE5       29.95F                  
     
$$
MOZ066>068-077>081-088>096-101>105-242200-
...SOUTHWEST MISSOURI...
  
CITY           SKY/WX    TMP DP  RH WIND       PRES   REMARKS
SPRINGFIELD    MOSUNNY   68  56  65 NW14      29.92S                  
JOPLIN         MOSUNNY   65  55  70 W10       29.96F                  
BRANSON        PTSUNNY   70  54  56 SW12G28   29.96F                  
               
$$
MOZ032>034-039>042-045>050-055>058-069>072-242200-
...CENTRAL MISSOURI...  
  
CITY           SKY/WX    TMP DP  RH WIND       PRES   REMARKS
COLUMBIA       CLOUDY    64  51  62 SW14      29.91F                  
JEFFERSON CITY PTSUNNY   66  52  60 VRB5      29.91F                  
ROLLA          CLOUDY    62  52  69 NW8       29.93F                  
SEDALIA        CLOUDY    62  49  62 W8        29.93S                  
WARRENSBURG    PTSUNNY   61  45  55 W15G23    29.93S                  
OSAGE BEACH    CLOUDY    66  55  67 W13G20    29.93S                  
               
$$
MOZ051-052-059>065-242200-
...EAST CENTRAL MISSOURI...
  
CITY           SKY/WX    TMP DP  RH WIND       PRES   REMARKS
ST LOUIS INTL  CLOUDY    65  50  58 E6        29.95F                  
SPIRIT OF STL  CLOUDY    66  51  58 E5        29.93F                  
ST CHARLES     CLOUDY    64  51  62 NE3       29.95S                  
                   
$$
MOZ072>076-082>087-097>100-106>115-242200-
...SOUTH CENTRAL AND SOUTHEAST MISSOURI...
  
CITY           SKY/WX    TMP DP  RH WIND       PRES   REMARKS
CAPE GIRARDEAU PTSUNNY   69  54  58 S13G22    29.98F                  
FARMINGTON     CLOUDY    67  54  63 S10       29.96F                  
POPLAR BLUFF   PTSUNNY   67  57  70 SW15      29.98F                  
WEST PLAINS    MOSUNNY   68  55  63 S14G22    29.95F                  
                                       
$$